Simultaneous Nadir Overpasses (SNOs) Predictions

Prediction of SNOs between FY3D and METOP-A Satellite Orbit:

Table of predicted SNOs for the next 14.0 days since TLE Epoch: 7/10/2021
Index Date (FY3D) Time (FY3D) Lat,Lon (FY3D) SZA (FY3D ) Date (METOP-A) Time (METOP-A) Lat,Lon (METOP-A) SZA (METOP-A ) Distance(km) Time Diff (sec)
1 07/17/2021 14:28:08 77.61, -56.80 57.40 07/17/2021 14:29:15 77.59, -53.99 57.12 67.12 67
2 07/17/2021 15:18:49 -77.46, 111.20 122.79 07/17/2021 15:20:00 -77.43, 112.66 122.97 35.40 71
3 07/17/2021 16:09:30 77.32, -80.82 57.03 07/17/2021 16:10:44 77.26, -80.72 56.94 7.02 74
4 07/17/2021 17:00:14 -77.30, 86.59 123.00 07/17/2021 17:01:25 -77.28, 86.69 123.05 3.14 71
5 07/17/2021 17:50:58 77.28,-106.02 56.99 07/17/2021 17:52:05 77.28,-105.97 56.97 1.37 67
6 07/17/2021 18:41:42 -77.26, 61.39 123.04 07/17/2021 18:42:47 -77.26, 61.26 123.05 3.19 65
7 07/17/2021 19:32:27 77.28,-131.40 57.00 07/17/2021 19:33:27 77.27,-131.39 56.97 1.93 60
8 07/17/2021 20:23:11 -77.26, 36.01 123.02 07/17/2021 20:24:08 -77.29, 36.02 123.02 2.73 57
9 07/17/2021 21:13:56 77.29,-156.78 57.02 07/17/2021 21:14:48 77.29,-156.63 56.99 3.74 52
10 07/17/2021 22:04:40 -77.26, 10.63 123.01 07/17/2021 22:05:30 -77.27, 10.60 123.02 0.77 50
11 07/17/2021 22:55:25 77.29, 177.84 57.04 07/17/2021 22:56:10 77.27, 177.95 56.99 3.35 45
12 07/17/2021 23:46:09 -77.27, -14.75 122.99 07/17/2021 23:46:52 -77.25, -14.82 123.02 2.78 43
13 07/18/2021 00:36:53 77.25, 152.65 57.00 07/18/2021 00:37:32 77.25, 152.53 57.00 2.93 39
14 07/18/2021 01:27:38 -77.27, -40.13 122.97 07/18/2021 01:28:13 -77.27, -40.06 122.99 1.74 35
15 07/18/2021 02:18:22 77.25, 127.26 57.01 07/18/2021 02:18:53 77.27, 127.29 57.02 2.77 31
16 07/18/2021 03:09:07 -77.27, -65.51 122.96 07/18/2021 03:09:35 -77.25, -65.48 122.99 2.32 28
17 07/18/2021 03:59:51 77.25, 101.88 57.03 07/18/2021 04:00:15 77.26, 101.86 57.02 0.51 24
18 07/18/2021 04:50:36 -77.27, -90.89 122.94 07/18/2021 04:50:56 -77.28, -90.72 122.96 4.17 20
19 07/18/2021 05:41:20 77.26, 76.50 57.04 07/18/2021 05:41:37 77.24, 76.44 57.02 2.68 17
20 07/18/2021 06:32:04 -77.23,-116.09 122.98 07/18/2021 06:32:18 -77.26,-116.15 122.96 2.88 14
21 07/18/2021 07:22:49 77.26, 51.12 57.06 07/18/2021 07:22:58 77.26, 51.20 57.05 2.02 9
22 07/18/2021 08:13:33 -77.24,-141.47 122.97 07/18/2021 08:13:40 -77.24,-141.57 122.96 2.42 7
23 07/18/2021 09:04:18 77.26, 25.74 57.08 07/18/2021 09:04:20 77.24, 25.78 57.05 2.53 2
24 07/18/2021 09:55:02 -77.24,-166.85 122.95 07/18/2021 09:55:01 -77.26,-166.81 122.93 2.68 1
25 07/18/2021 10:45:47 77.26, 0.35 57.09 07/18/2021 10:45:41 77.26, 0.54 57.08 4.47 6
26 07/18/2021 11:36:31 -77.24, 167.77 122.93 07/18/2021 11:36:23 -77.24, 167.77 122.93 0.03 8
27 07/18/2021 12:27:15 77.22, -24.84 57.05 07/18/2021 12:27:03 77.25, -24.89 57.08 2.64 12
28 07/18/2021 13:17:59 -77.24, 142.39 122.92 07/18/2021 13:17:44 -77.22, 142.35 122.93 2.62 15
29 07/18/2021 14:08:43 77.23, -50.22 57.07 07/18/2021 14:08:24 77.23, -50.31 57.08 2.14 19
30 07/18/2021 14:59:28 -77.25, 117.01 122.90 07/18/2021 14:59:05 -77.25, 117.11 122.90 2.47 23
31 07/18/2021 15:50:12 77.23, -75.60 57.09 07/18/2021 15:49:45 77.25, -75.55 57.11 2.67 27
32 07/18/2021 16:40:57 -77.25, 91.62 122.89 07/18/2021 16:40:27 -77.23, 91.68 122.90 2.87 30
33 07/18/2021 17:31:41 77.23,-100.98 57.10 07/18/2021 17:31:07 77.23,-100.97 57.11 0.37 34
34 07/18/2021 18:22:25 -77.21, 66.43 122.93 07/18/2021 18:21:49 -77.21, 66.26 122.90 4.11 36
35 07/18/2021 19:13:10 77.23,-126.37 57.12 07/18/2021 19:12:29 77.21,-126.39 57.11 2.74 41
36 07/18/2021 20:03:54 -77.21, 41.05 122.91 07/18/2021 20:03:10 -77.23, 41.02 122.87 2.35 44
37 07/18/2021 20:54:39 77.24,-151.75 57.13 07/18/2021 20:53:50 77.24,-151.63 57.14 2.79 49
38 07/18/2021 21:45:23 -77.21, 15.67 122.89 07/18/2021 21:44:32 -77.21, 15.60 122.87 1.67 51
39 07/18/2021 22:36:08 77.24,-177.13 57.15 07/18/2021 22:35:12 77.22,-177.06 57.14 3.26 56
40 07/18/2021 23:26:52 -77.22, -9.71 122.88 07/18/2021 23:25:53 -77.24, -9.64 122.84 2.85 59
41 07/19/2021 00:17:36 77.20, 157.68 57.11 07/19/2021 00:16:34 77.20, 157.52 57.14 3.84 62
42 07/19/2021 01:08:21 -77.22, -35.10 122.86 07/19/2021 01:07:15 -77.22, -35.06 122.84 0.83 66
43 07/19/2021 01:59:05 77.20, 132.29 57.13 07/19/2021 01:57:55 77.22, 132.28 57.17 2.00 70
44 07/19/2021 02:49:50 -77.22, -60.48 122.84 07/19/2021 02:48:37 -77.20, -60.48 122.84 2.71 73
45 07/19/2021 03:40:32 77.12, 107.28 57.03 07/19/2021 03:39:19 77.11, 106.50 57.12 19.47 73
46 07/19/2021 04:31:14 -77.01, -84.94 123.10 07/19/2021 04:30:03 -77.00, -86.61 122.94 41.82 71
47 07/19/2021 05:21:53 76.77, 83.34 56.61 07/19/2021 05:20:48 76.78, 79.87 56.94 88.42 65



Historial Predications of SNOs between FY3D and METOP-A
